Regional Weather Roundup
Issued by NWS

Home | Current Version | Previous Version | Text Only | Print | Product List | Glossary On
Versions: 1 2 3 4 5 6 7 8 9 10 11 12 13 14 15 16 17 18 19 20 21 22 23 24 25 26 27 28 29 30 31 32 33 34 35 36 37 38 39 40 41 42 43 44 45 46 47 48 49 50
000
ASUS44 KMEG 231100
RWRTN
TENNESSEE HOURLY STATE WEATHER ROUNDUP
NATIONAL WEATHER SERVICE MEMPHIS TN
600 AM CDT WED JUL 23 2014

TNZ002-004-019-021-049-052-054-088>092-231200-
WEST TENNESSEE

CITY           SKY/WX    TMP DP  RH WIND       PRES   REMARKS
MEMPHIS INTL   PTCLDY    73  69  87 CALM      30.06R
NWS MEMPHIS      N/A     71 N/A N/A MISG        N/A
JACKSON        MOCLDY    72  69  90 CALM      30.06S FOG
DYERSBURG      CLEAR     70  63  78 CALM      30.07R
UNION CITY     CLEAR     70  70 100 CALM      30.05R
PARIS          CLEAR     66  66 100 CALM      30.07S
LEXINGTON        N/A     70  70 100 CALM      30.06R VSB 3/4
SAVANNAH       CLEAR     70  70 100 SE3       30.07S
$$

TNZ008-025-027-028-033-062-065-066-231200-
NORTH MIDDLE TENNESSEE

CITY           SKY/WX    TMP DP  RH WIND       PRES   REMARKS
NASHVILLE      PTCLDY    73  71  93 CALM      30.07S
CLARKSVILLE    CLEAR     70  69  97 SE5       30.05S FOG
COOKEVILLE     CLEAR     70  70 100 CALM      30.11R
CROSSVILLE     PTCLDY    68  65  90 CALM      30.15R
$$

TNZ061-075-076-078-094-096-097-231200-
SOUTH MIDDLE TENNESSEE

CITY           SKY/WX    TMP DP  RH WIND       PRES   REMARKS
FAYETTEVILLE   CLEAR     68  66  94 CALM      30.10S
TULLAHOMA      PTCLDY    70  68  94 CALM      30.12R
WINCHESTER     MOCLDY    68  68 100 CALM      30.11R
MCMINNVILLE    MOCLDY    70  70 100 CALM      30.11S
COLUMBIA       CLEAR     72  72 100 S3        30.07S
SHELBYVILLE    PTCLDY    72  70  94 E3        30.11R
$$

TNZ017-018-042-046-047-231200-
NORTHEAST TENNESSEE

CITY           SKY/WX    TMP DP  RH WIND       PRES   REMARKS
TRI CITIES     CLOUDY    69  66  90 CALM      30.14R
ELIZABETHTON   CLOUDY    66  64  94 CALM      30.15R
$$

TNZ012-013-036-069-073-074-231200-
CENTRAL EAST TENNESSEE

CITY           SKY/WX    TMP DP  RH WIND       PRES   REMARKS
KNOXVILLE      CLOUDY    72  70  93 SW5       30.10R
OAK RIDGE      CLOUDY    75  72  90 S3        30.11R
GATLINBURG     CLOUDY    72  70  94 CALM      30.11R
$$

TNZ083-085-099-231200-
SOUTHEAST TENNESSEE

CITY           SKY/WX    TMP DP  RH WIND       PRES   REMARKS
CHATTANOOGA    PTCLDY    71  68  90 CALM      30.11R
$$

SKY/WX REPORTED AS FAIR MEANS FEW OR NO CLOUDS BELOW
12 THOUSAND FEET.




USA.gov is the U.S. government's official web portal to all federal, state and local government web resources and services.